Date,TemperatureHighF,TemperatureAvgF,TemperatureLowF,DewpointHighF,DewpointAvgF,DewpointLowF,HumidityHigh,HumidityAvg,HumidityLow,PressureMaxIn,PressureMinIn,WindSpeedMaxMPH,WindSpeedAvgMPH,GustSpeedMaxMPH,PrecipitationSumIn
2013-2-1,64.5,55.8,49.4,43.9,40.6,34.9,74,57,44,30.18,30.10,0,0,6,0.00
2013-2-2,56.3,49.1,45.5,47.5,44.6,41.3,93,85,67,30.27,30.18,1,0,6,0.00
2013-2-3,56.0,48.4,42.8,44.0,41.5,38.0,91,77,61,30.24,30.12,1,0,7,0.00
2013-2-4,54.4,46.8,42.6,49.7,43.6,40.4,94,89,75,30.16,30.05,1,0,7,0.00
2013-2-5,53.2,46.3,42.2,45.8,41.6,37.8,94,84,71,30.14,30.05,3,0,10,0.00
2013-2-6,54.4,47.2,41.8,42.7,38.8,35.9,91,73,56,30.18,30.11,2,0,10,0.00
2013-2-7,51.4,45.0,40.9,43.9,39.6,35.3,93,82,60,30.15,29.98,5,1,14,0.07
2013-2-8,51.1,43.5,37.8,39.6,36.6,29.7,93,77,58,30.00,29.92,4,0,11,0.07
2013-2-9,56.3,46.9,40.6,30.7,26.7,19.9,61,46,26,30.08,29.97,4,0,12,0.00
2013-2-10,58.1,48.3,41.5,38.2,32.3,22.3,80,54,40,30.10,30.01,0,0,2,0.00
2013-2-11,64.2,50.3,43.8,43.6,30.3,22.2,93,50,25,30.21,30.05,1,0,6,0.00
2013-2-12,58.4,49.2,41.6,43.6,37.8,30.6,93,66,35,30.34,30.21,1,0,6,0.00
2013-2-13,58.6,49.0,43.6,45.3,39.8,34.5,86,71,50,30.32,30.20,0,0,3,0.00
2013-2-14,68.4,56.6,45.2,44.2,38.6,34.4,83,52,35,30.22,30.14,0,0,2,0.00
2013-2-15,69.8,60.6,55.1,39.6,33.7,29.4,43,36,29,30.24,30.16,0,0,1,0.00
2013-2-16,67.9,59.5,49.9,47.3,41.2,29.5,79,52,31,30.17,29.99,0,0,1,0.00
2013-2-17,57.0,49.4,45.2,45.2,41.3,36.6,90,74,53,30.01,29.94,0,0,1,0.00
2013-2-18,48.9,44.5,42.8,41.9,38.3,34.1,92,79,64,29.99,29.92,0,0,1,0.00
2013-2-19,44.9,41.4,37.2,40.7,35.5,31.0,93,80,60,29.93,29.71,0,0,1,0.29
2013-2-20,55.6,44.2,35.6,38.5,33.6,29.1,83,68,42,30.02,29.81,0,0,1,0.00
2013-2-21,59.2,47.8,38.2,36.9,32.8,25.0,81,58,27,30.12,30.00,0,0,1,0.00
2013-2-22,56.7,48.5,43.1,42.1,37.6,29.5,85,67,37,30.21,30.12,0,0,1,0.00
2013-2-23,57.8,48.4,42.6,44.6,35.9,27.7,93,64,32,30.22,30.12,0,0,1,0.00
2013-2-24,60.5,49.8,41.9,37.8,26.0,18.9,77,41,21,30.21,30.13,0,0,1,0.00
2013-2-25,63.5,50.8,42.8,44.0,39.9,34.2,92,68,41,30.22,30.13,0,0,1,0.00
2013-2-26,65.3,53.1,43.6,39.3,29.8,20.7,71,43,18,30.17,30.10,0,0,1,0.00
2013-2-27,62.7,54.3,45.2,44.7,34.9,16.3,76,50,24,30.32,30.15,0,0,1,0.00
2013-2-28,62.6,54.4,47.4,49.8,46.2,42.0,84,74,61,30.41,30.31,0,0,1,0.00